Other Public Products
Issued by NWS Grand Forks, ND

Home | Current Version | Previous Version | Graphics & Text | Print | Product List | Glossary On
Versions: 1 2 3 4 5 6 7 8 9 10 11 12 13 14 15 16 17 18 19 20 21 22 23 24 25 26 27 28 29 30 31 32 33 34 35 36 37 38 39 40 41 42 43 44 45 46 47 48 49 50
000
FPUS83 KFGF 240631
OPUFGF
PRAIRIE TO PINES WEATHER ROUNDUP
NATIONAL WEATHER SERVICE EASTERN NORTH DAKOTA/GRAND FORKS ND
100 AM CDT THU APR 24 2014

 **SATELLITE DATA USED TO AUGMENT SKY COVER AT AUTOMATED STATIONS**
 *****  WEATHER ACROSS EASTERN NORTH DAKOTA  *****

CITY           SKY/WX    TMP DP  RH WIND       PRES   REMARKS
GRAND FORKS    LGT RAIN  39  37  92 SE17      29.83S FOG
6HR MIN TEMP:  39; 6HR MAX TEMP:  42; 6HR PCP:  0.24;

GRAND FORKS AF CLOUDY    37  37 100 SE12      29.82F FOG
GRAND CITY NWS   N/A     37 N/A N/A E18         N/A
BUXTON         NOT AVBL
DEVILS LAKE    CLOUDY    37  34  87 SE16      29.74F
6HR MIN TEMP:  37; 6HR MAX TEMP:  39; 6HR PCP:  0.05;

FARGO          LGT RAIN  42  38  85 SE13G24   29.80R
6HR MIN TEMP:  40; 6HR MAX TEMP:  43; 6HR PCP:  0.17;

WAHPETON ARPT  CLOUDY    41  36  81 SE15      29.80S
$$

 *****  WEATHER ACROSS CENTRAL AND WESTERN NORTH DAKOTA  *****

CITY           SKY/WX    TMP DP  RH WIND       PRES   REMARKS
JAMESTOWN      CLOUDY    40  38  93 S12       29.75F
6HR MIN TEMP:  40; 6HR MAX TEMP:  41; 6HR PCP: TRACE;

BISMARCK       MOCLDY    38  50 100 S3        29.74R
6HR MIN TEMP:  36; 6HR MAX TEMP:  53;

MINOT          FAIR      40  38  93 SW6       29.64F
6HR MIN TEMP:  40; 6HR MAX TEMP:  46; 6HR PCP:  0.03;

MINOT AFB      CLOUDY    39  39 100 SW6       29.63F
6HR MIN TEMP:  37; 6HR MAX TEMP:  44; 6HR PCP:  0.01;

GARRISON         N/A     34  34 100 S5        29.69R
6HR MIN TEMP:  34; 6HR MAX TEMP:  46; 6HR PCP:  0.01;

WILLISTON      PTCLDY    39  30  70 SW8       29.64R
6HR MIN TEMP:  34; 6HR MAX TEMP:  56;

DICKINSON      CLEAR     36  24  62 SW9       29.70R
6HR MIN TEMP:  33; 6HR MAX TEMP:  56;

HETTINGER      PTCLDY    36  27  69 W7        29.76R
6HR MIN TEMP:  34; 6HR MAX TEMP:  54;

$$

 *****  OTHER OBSERVATIONS NORTHEAST NORTH DAKOTA  *****

CITY           SKY/WX    TMP DP  RH WIND       PRES   REMARKS
WALHALLA       CLOUDY    37  37 100 SE18G28   29.82R
LANGDON        MIX PCPN  37  36  93 SE22G29   29.76S
CAVALIER       CLOUDY    37  36  93 SE13G21   29.83S
GRAFTON        CLOUDY    37  37 100 SE17G23   29.83S FOG
CANDO          CLOUDY    37  37 100 SE17G24   29.73S
FORT TOTTEN      N/A     38  37  95 SE15      29.95S
ROLLA          CLOUDY    37  37 100 SE21      29.72S FOG
RUGBY          CLOUDY    39  39 100 S15G21    29.70R
 ***** THE ABOVE OBSERVATIONS ARE NON NWS ARE NOT QUALITY
        CONTROLLED AND MAY MIS-REPORT RAIN FOR SNOW...
$$

 *****  OTHER OBSERVATIONS SOUTHEAST NORTH DAKOTA *****

CITY           SKY/WX    TMP DP  RH WIND       PRES   REMARKS
COOPERSTOWN    CLOUDY    37  37 100 S14G20    29.78S FOG
VALLEY CITY    CLOUDY    39  39 100 S12       29.78S
OAKES          CLOUDY    39  39 100 N5        29.78R
GWINNER        CLOUDY    41  41 100 SE12      29.78R
SHEYENNE NWR     N/A     41  41  99 SE12      29.95S
BUFFALO        NOT AVBL
WYNDMERE       NOT AVBL
 ***** THE ABOVE OBSERVATIONS ARE NON NWS ARE NOT QUALITY
       CONTROLLED AND MAY MIS-REPORT RAIN FOR SNOW...
$$

  *****  WEATHER ACROSS NORTHERN MINNESOTA  *****

CITY           SKY/WX    TMP DP  RH WIND       PRES   REMARKS
FLAG ISLAND    DRIZZLE   36  34  93 SE7       29.94F
WARROAD        MIX PCPN  37  34  87 E8        29.93F
ROSEAU         MOCLDY    37  34  87 E7        29.92S
HALLOCK        CLOUDY    39  36  87 SE17      29.85S
THF RVR FALLS  CLOUDY    36  32  87 E16G22    29.87S
6HR MIN TEMP:  36; 6HR MAX TEMP:  43; 6HR PCP:  0.32;

HALSTAD          N/A     40  39  97 SE9         N/A
FOSSTON        CLOUDY    36  34  93 SE10G17   29.87R
BAUDETTE       CLOUDY    39  37  92 SE8G20    29.95F
6HR MIN TEMP:  39; 6HR MAX TEMP:  53; 6HR PCP:  0.03;

WASKISH        LGT RAIN  36  36 100 E15       29.93F
CROOKSTON      CLOUDY    37  37 100 SE12      29.86S
$$
  *****  WEATHER ACROSS CENTRAL AND WEST MINNESOTA  *****

CITY           SKY/WX    TMP DP  RH WIND       PRES   REMARKS
BEMIDJI        CLOUDY    33  32  96 E12       29.89S WCI  24
PARK RAPIDS    CLOUDY    37  36  96 SE12      29.86F
6HR MIN TEMP:  33; 6HR MAX TEMP:  37; 6HR PCP:  0.21;

WADENA         CLOUDY    37  36  93 SE15G21   29.84F
DETROIT LAKES  DRIZZLE   37  37 100 SE13      29.83S
MOORHEAD       CLOUDY    43  41  93 SE13G20   29.81S
FERGUS FALLS   CLOUDY    41  36  81 SE16      29.79F
ELBOW LAKE     CLOUDY    40  36  84 SE15G24   29.81S
6HR MIN TEMP:  40; 6HR MAX TEMP:  41;

MORRIS MN      DRIZZLE   41  37  87 SE16      29.79F
STAPLES        CLOUDY    37  36  93 SE10G17   29.87R
WHEATON        CLOUDY    43  39  87 SE14      29.81S
$$
  *****  WEATHER ELSEWHERE ACROSS MINNESOTA  *****

CITY           SKY/WX    TMP DP  RH WIND       PRES   REMARKS
DULUTH         LGT RAIN  36  33  89 SE10      30.00F
6HR MIN TEMP:  35; 6HR MAX TEMP:  42; 6HR PCP:  0.20;

INTRNTL FALLS  LGT RAIN  39  35  86 SE10      29.99S
6HR MIN TEMP:  40; 6HR MAX TEMP:  52; 6HR PCP:  0.01;

ELY            MIX PCPN  37  27  65 S8        30.03R
CLOQUET        DRIZZLE   36  34  93 E7        29.99F
BRAINERD       CLOUDY    43  36  76 SE12G20   29.90F
6HR MIN TEMP:  42; 6HR MAX TEMP:  43; 6HR PCP:  0.04;

HIBBING        LGT SNOW  34  32  92 SE8       29.99F FOG
6HR MIN TEMP:  34; 6HR MAX TEMP:  49; 6HR PCP:  0.22;

ALEXANDRIA     CLOUDY    40  36  86 SE14      29.85R
6HR MIN TEMP:  39; 6HR MAX TEMP:  40;

SAINT CLOUD    CLOUDY    42  37  82 E8        29.88F
6HR MIN TEMP:  41; 6HR MAX TEMP:  42; 6HR PCP:  0.01;

MINNEAPOLIS    CLOUDY    43  38  82 E15       29.91F
6HR MIN TEMP:  42; 6HR MAX TEMP:  43; 6HR PCP:  0.07;

$$

  *****  WEATHER ACROSS SOUTH DAKOTA  *****

CITY           SKY/WX    TMP DP  RH WIND       PRES   REMARKS
SIOUX FALLS    CLOUDY    47  40  76 E13       29.68F
6HR MIN TEMP:  47; 6HR MAX TEMP:  59; 6HR PCP: TRACE;

BROOKINGS      NOT AVBL
WATERTOWN      FAIR      42  37  82 SE10      29.72F
6HR MIN TEMP:  42; 6HR MAX TEMP:  48; 6HR PCP: TRACE;

HURON          CLOUDY    50  40  68 SE9       29.69S
6HR MIN TEMP:  50; 6HR MAX TEMP:  67;

SISSETON         N/A     41  38  89 SE13      29.77R
ABERDEEN       MOCLDY    39  38  96 N8        29.75R
6HR MIN TEMP:  39; 6HR MAX TEMP:  50;

MITCHELL       CLOUDY    49  42  77 SE8       29.67R
PIERRE         MOCLDY    46  37  71 NW12      29.74S
6HR MIN TEMP:  44; 6HR MAX TEMP:  60;

MOBRIDGE       PTCLDY    35  33  92 NW5       29.72F
RAPID CITY     CLOUDY    41  28  60 NW7       29.82R
6HR MIN TEMP:  39; 6HR MAX TEMP:  57;

$$

  *****  SOME WEATHER IN NEARBY STATES *****

CITY           SKY/WX    TMP DP  RH WIND       PRES   REMARKS
GLASGOW MT     CLEAR     40  27  59 NW7       29.68R
6HR MIN TEMP:  39; 6HR MAX TEMP:  60;

GREAT FALLS MT PTCLDY    35  28  75 SW12      29.76R
6HR MIN TEMP:  34; 6HR MAX TEMP:  50;

CHEYENNE WY    CLOUDY    41   4  21 NW22G32   29.94R
6HR MIN TEMP:  41; 6HR MAX TEMP:  50;

SCOTTSBLUFF NE CLOUDY    49  31  49 N10       29.89R
6HR MIN TEMP:  49; 6HR MAX TEMP:  61;

OMAHA NE       CLOUDY    51  45  79 NW15      29.69R
6HR MIN TEMP:  51; 6HR MAX TEMP:  57; 6HR PCP:  0.02;

DES MOINES IA  LGT RAIN  52  39  61 SE13      29.78F
6HR MIN TEMP:  49; 6HR MAX TEMP:  52; 6HR PCP:  0.03;

DAVENPORT IA   CLOUDY    47  37  68 E15       29.95R
6HR MIN TEMP:  47; 6HR MAX TEMP:  49; 6HR PCP:  0.02;

CHICAGO IL     LGT RAIN  40  29  64 N8        30.08R
6HR MIN TEMP:  40; 6HR MAX TEMP:  44; 6HR PCP:  0.02;

EAU CLAIRE WI  CLOUDY    41  39  93 E14       29.99F
6HR MIN TEMP:  41; 6HR MAX TEMP:  43; 6HR PCP:  0.20;

LA CROSSE WI   LGT RAIN  43  38  82 E10       30.01R
6HR MIN TEMP:  43; 6HR MAX TEMP:  46; 6HR PCP:  0.14;

$$

  *****  SOME NATIONAL WEATHER *****

CITY           SKY/WX    TMP DP  RH WIND       PRES   REMARKS



USA.gov is the U.S. government's official web portal to all federal, state and local government web resources and services.